Regional Weather Roundup
Issued by NWS

Home | Current Version | Previous Version | Text Only | Print | Product List | Glossary Off
Versions: 1 2 3 4 5 6 7 8 9 10 11 12 13 14 15 16 17 18 19 20 21 22 23 24 25 26 27

000
ASUS45 KSLC 170310
RWRUT

UTAH REGIONAL WEATHER ROUNDUP
NATIONAL WEATHER SERVICE SALT LAKE CITY UT
800 PM MST THU NOV 16 2017

UTZ001>011-023>025-170400-

NORTHERN UTAH

CITY           SKY/WX    TMP DP  RH WIND       PRES   REMARKS
BRIGHAM CITY   CLOUDY    51  43  72 S6        29.75S
HILL AFB       LGT RAIN  50  42  75 NE6       29.76R
LOGAN          LGT RAIN  50  45  83 SE13      29.72F
OGDEN          LGT RAIN  50  44  80 CALM      29.75R
SALT LAKE CITY MOCLDY    58  39  49 N10       29.74S
TOOELE VALLEY  CLOUDY    54  39  58 NE9       29.75F
WENDOVER       CLOUDY    53  41  63 SW10      29.73F
HEBER CITY     LGT RAIN  52  36  54 SW21      29.77S
WEST JORDAN    CLOUDY    55  38  53 N5        29.75S

$$

UTZ011>015-024>027-170400-

CENTRAL/NORTHEAST UTAH

CITY           SKY/WX    TMP DP  RH WIND       PRES   REMARKS
PROVO AIRPORT  NOT AVBL
MOAB/CANYONLAN CLOUDY    60  30  32 SW9       29.85S
DELTA          CLOUDY    55  32  41 S25G35    29.80F
PRICE          CLOUDY    41  21  44 CALM      29.88F
ROOSEVELT      CLOUDY    43  21  42 CALM      29.84F
VERNAL         CLOUDY    36  22  56 W6        29.83S WCI  31

$$

UTZ013>016-019>022-027-170400-

SOUTHERN UTAH

CITY           SKY/WX    TMP DP  RH WIND       PRES   REMARKS
BRYCE CANYON   CLOUDY    49  32  52 SW18G26   30.04F
CEDAR CITY     CLOUDY    58  33  39 S25G38    29.91F
MILFORD        CLOUDY    55  35  47 S20       29.86F
ST GEORGE      CLOUDY    66  34  30 S9        29.88F
HANKSVILLE     CLOUDY    63  32  31 S14G24    29.89R
BLANDING         N/A     47  19  33 E5        30.09S

$$

REGIONAL REPORTS     COLORADO/ARIZONA

CITY           SKY/WX    TMP DP  RH WIND       PRES   REMARKS
CRAIG, CO      CLOUDY    53  25  33 SW14G24   29.84F
GRAND JUNCTION CLOUDY    52  25  35 S6        29.88F
RIFLE, CO      CLOUDY    51  26  37 E3        29.89F
MONTROSE, CO   CLOUDY    56  27  32 E6        29.96F
CORTEZ, CO     CLOUDY    48  26  42 CALM      30.05F
COLORADO CITY    N/A     61  34  36 SW8       30.02S
PAGE, AZ       CLOUDY    58  28  32 SW6       29.94F
GRAND CANYON   CLOUDY    54  27  35 SW12      30.13S
KINGMAN, AZ    CLOUDY    68  35  29 S10       29.98F
FLAGSTAFF, AZ  MOCLDY    49  21  33 SW3       30.17R

$$

REGIONAL REPORTS    NEVADA/IDAHO/WYOMING

CITY           SKY/WX    TMP DP  RH WIND       PRES   REMARKS
LAS VEGAS, NV  MOCLDY    74  39  28 SW15G25   29.85R
ELY, NY        CLOUDY    54  33  45 S23G30    29.81R
ELKO, NV       LGT RAIN  47  43  86 SW13      29.74R
POCATELLO, ID  LGT RAIN  36  35  96 S13       29.76S WCI  27
BURLEY, ID     CLOUDY    39  36  89 S7        29.70F WCI  34
FORT BRIDGER,  CLOUDY    44  37  76 SW10      29.80F
EVANSTON, WY   CLOUDY    42  39  89 SW16      29.78F
ROCK SPRINGS,  CLOUDY    45  30  55 NW6       29.78F
KEMMERER, WY   DRIZZLE   37  36  93 W15       29.78F WCI  28

$$




USA.gov is the U.S. government's official web portal to all federal, state and local government web resources and services.